COSMOS 2251 DEB, 34813

Orbit data source: Space-Track

COSMOS 2251 DEB, 34813 is space debris in LEO originally from a launch on Wed, 16 Jun 1993 UTC launched from the Plesetsk Missile And Space Complex (PKMTR). The debris from Iridium 33, an American commercial communications satellite, has been tracked extensively since its accidental collision with the defunct Russian satellite Cosmos 2251 in 2009. This event, occurring at high speed in low Earth orbit (LEO), generated thousands of pieces of space debris, significantly increasing the risk of further collisions. The Iridium 33 debris cloud has impacted space traffic management and orbital debris mitigation strategies, making it a subject of ongoing study in space situational awareness.

Loading next visibility...
Identifier
34813, 1993-036ABC
Orbit
LEO
Country
Flag of CISCIS
Related business
Manufacturer
Unknown
Mission
Spacecraft
Bus & Motor
Unknown
Mass
Unknown
Launch date (UTC)
1993-06-16 (33 years ago)
Launch vehicle
Unknown
Launch site
Plesetsk Missile And Space Complex (PKMTR)
Object type
Payload
Rocket body
Debris
Shape & HBR
Unknown shape, 0.1 m
Radar Cross Section
Small (<0.1 m²)

Expand to show TLE details & history
Last TLE update: 11 hours ago

TLE from 11 hours ago
0 COSMOS 2251 DEB
1 34813U 93036ABC 26120.81537957  .00003304  00000-0  28350-2 0  9996
2 34813  73.9284 269.4148 0434823 277.2196  77.9687 13.51253115835339
Epoch: 2026-04-30T19:34Z
TLE epoch observation values (Epoch: 2026-04-30T19:34:08.794Z)
Latitude
-0.00003°
Longitude
117.12158°
Altitude
1,016.3 km
Speed
7.37 km/s
True Right ascension
17h 57m 39s
True Declination
0° 00' 00"
Sunlit
Object was in full shadow at epoch
Visualization orbit readout
Latitude
Unknown
Longitude
Unknown
Altitude
Unknown
Speed
Unknown
Apparent Right ascension
Unknown
Apparent Declination
Unknown
Sunlit
N/A
Visualization observer readout
Local Sidereal Time
13:53:59
Azimuth
Unknown
Elevation
Unknown
Doppler factor
Unknown
Orbital elements
Apogee altitude
1,389.034 km
Perigee altitude
741.712 km
Semi-major axis
7,443.51 km
Eccentricity
0.04348
Inclination
73.9284°
RAAN
269.4148°
Arg. of periapsis
277.2196°
True anomaly
82.8917°
Mean anomaly
77.9687°
Eccentric anomaly
80.42535°
Mean motion
3.37969 °/min
Orbital period
106.52 mins
BSTAR
0.002835
Loading maneuver chart data...
Computing Atmospheric mass density...

Documentation

Showing up to 5 results
|